#timestamp,LO_Frequency,Hit,StdDev 
1673294415.7,286046998.8,N
1673294435.5,286046998.2,N
1673294455.3,286046999.3,N
1673294475.2,286046998.5,N
1673294495.0,286047001.0,N
1673294495.9,286047001.0,N
1673294515.7,286047001.0,N
1673294535.6,286047000.9,N
1673294555.4,286047000.0,N
1673294575.3,286047001.1,N
1673294595.1,286047000.8,N
1673294596.0,286047000.8,N
1673294615.8,286046998.4,N
1673294635.7,286046998.4,N
1673294655.5,286047001.1,N
1673294675.4,286047000.6,N
1673294695.2,286047000.5,N
1673294715.0,286047002.7,N
1673294715.9,286047002.7,N
1673294735.8,286047001.1,N
1673294755.6,286046998.7,N
1673294775.5,286046998.7,N
1673294795.3,286046998.3,N
1673294815.1,286047000.9,N
1673294835.9,286046998.2,N
1673294855.7,286047001.2,N
1673294875.5,286047000.9,N
1673294895.4,286047000.7,N
1673294915.2,286046998.2,N
1673294935.1,286047000.9,N
1673294936.0,286047000.9,N
1673294955.8,286047000.8,N
1673294975.6,286047000.9,N
1673294995.5,286047000.4,N
1673295015.3,286047000.7,N
1673295035.2,286047001.0,N
1673295055.9,286047000.2,N
1673295075.7,286047000.1,N
1673295095.6,286047000.5,N
1673295115.4,286047000.5,N
1673295135.2,286047001.1,N
1673295155.1,286047000.4,N
1673295156.0,286047000.4,N
1673295175.8,286046999.8,N
1673295195.7,286047000.6,N
1673295215.5,286047000.6,N
1673295235.3,286047001.0,N
1673295255.2,286047000.3,N
1673295275.0,286047000.7,N
1673295275.9,286047000.7,N
1673295295.8,286047000.7,N
1673295315.6,286047000.5,N
1673295335.4,286047000.5,N
1673295355.3,286046998.1,N
1673295375.1,286046998.4,N
1673295395.8,286047000.4,N
1673295415.7,286047000.9,N
1673295435.5,286046998.3,N
1673295455.4,286046999.0,N
1673295475.2,286046999.2,N
1673295495.0,286046998.8,N
1673295495.9,286046998.8,N
1673295515.8,286046998.3,N
1673295535.6,286046999.1,N
1673295555.5,286046998.7,N
1673295575.3,286046998.6,N
1673295595.1,286046998.5,N
1673295615.9,286046998.5,N
1673295635.7,286047000.6,N
1673295655.6,286047000.8,N
1673295675.4,286047000.6,N
1673295695.2,286046998.8,N
1673295715.1,286046996.5,Y
1673295716.0,286046996.5,P
1673295735.8,286046996.7,N
1673295755.7,286046997.3,N
1673295775.5,286046996.9,N
1673295795.3,286046997.0,N
1673295815.2,286046999.6,N
1673295835.0,286046998.5,N
1673295835.9,286046998.5,N
1673295855.8,286046999.0,N
1673295875.6,286046998.4,N
1673295895.4,286046999.2,N
1673295915.3,286046999.6,N
1673295935.1,286046997.2,N
1673295955.8,286046997.5,N
1673295975.7,286046996.2,Y
1673295995.5,286046997.7,P
1673296015.4,286046997.1,P
1673296035.2,286046996.8,P
1673296055.0,286046997.0,Y
1673296055.9,286046997.0,P
1673296075.8,286046998.6,P
1673296095.6,286046998.4,N
1673296115.5,286046998.5,N
1673296135.3,286046998.9,N
1673296155.1,286046999.2,N
1673296175.9,286046999.4,N
1673296195.7,286046999.6,N
1673296215.6,286046999.0,N
1673296235.4,286046997.8,N
1673296255.2,286046997.8,N
1673296275.1,286046997.1,Y
1673296276.0,286046997.1,P
1673296295.8,286046998.3,N
1673296315.7,286046998.3,N
1673296335.5,286046999.0,N
1673296355.3,286046998.7,N
1673296375.2,286046998.2,Y
1673296395.0,286047002.0,P
1673296395.9,286047002.0,N
1673296415.8,286047002.3,N
1673296435.6,286047000.3,N
1673296455.4,286047000.4,N
1673296475.3,286046999.5,N
1673296495.1,286046999.1,N
1673296515.8,286046998.7,N
1673296535.7,286046996.5,N
1673296555.5,286046999.5,N
1673296575.4,286046998.7,N
1673296595.2,286047000.7,N
1673296615.0,286047000.3,N
1673296615.9,286047000.3,N
1673296635.8,286047001.2,N
1673296655.6,286046998.9,N
1673296675.5,286046996.5,N
1673296695.3,286046997.2,N
1673296715.1,286046996.9,N
1673296735.9,286046997.7,N
1673296755.7,286046995.3,N
1673296775.5,286046996.4,N
1673296795.4,286046993.8,Y
1673296815.2,286046995.1,P
1673296835.1,286046998.0,N
1673296836.0,286046998.0,N
1673296855.8,286046996.2,N
1673296875.7,286046993.3,Y
1673296895.5,286046999.4,P
1673296915.3,286046999.1,N
1673296935.2,286047001.2,N
1673296955.0,286047000.6,N
1673296955.9,286047000.6,N
1673296975.8,286047000.4,N
1673296995.6,286047000.4,N
1673297015.4,286047000.8,N
1673297035.3,286047000.9,N
1673297055.1,286046999.0,N
1673297075.8,286046996.5,Y
1673297095.7,286046999.6,P
1673297115.5,286046997.2,P
1673297135.4,286046996.8,N
1673297155.2,286046997.2,N
1673297175.0,286046999.6,N
1673297175.9,286046999.6,N
1673297195.8,286046999.5,N
1673297215.6,286046996.5,N
1673297235.4,286046998.9,N
1673297255.3,286046999.1,N
1673297275.1,286046998.7,N
1673297295.9,286046998.1,N
1673297315.7,286047001.0,N
1673297335.5,286046999.1,N
1673297355.4,286046996.9,N
1673297375.2,286046997.9,N
1673297395.0,286046995.0,Y
1673297395.9,286046995.0,P
1673297415.8,286046997.0,N
1673297435.6,286046998.6,N
1673297455.5,286046998.4,N
1673297475.3,286046998.4,N
1673297495.2,286047000.7,N
1673297515.8,286047000.4,N
1673297535.6,286047000.9,N
1673297555.4,286047000.9,N
1673297575.3,286047001.1,N
1673297595.1,286046998.4,N
1673297615.8,286046996.9,N
1673297635.7,286046997.7,N
1673297655.5,286046997.6,N
1673297675.4,286046997.6,N
1673297695.2,286046996.2,N
1673297715.0,286046996.3,N
1673297715.9,286046996.3,N
1673297735.8,286046993.8,Y
1673297755.6,286046997.4,P
1673297775.5,286046996.7,P
1673297795.3,286046999.5,N
1673297815.1,286047000.5,N
1673297865.9,286047000.5,E
1673297875.8,286046999.9,N
1673297895.6,286047001.1,P
1673297915.5,286047001.1,N
1673297935.3,286046998.6,N
1673297955.2,286047000.9,N
1673297975.9,286046999.1,N
1673297995.7,286046999.4,N
